User: anonymous
Location: Unspecified
(0.0000°N, 0.0000°E)
Time: 18:01:25
(UTC+02:00)
Language:

ISS - Orbit

View from above orbital plane
View from above orbital plane
View from above satellite
View from above satellite

Ground track
Ground track

The orbit data is extracted from the following two-line orbital elements,

1 25544U 98067A   14233.44459491  .00009699  00000-0  17682-3 0  9375
2 25544 051.6463 136.1157 0004538 045.9696 295.6855 15.50140870901449
Epoch (UTC): 21 August 2014 10:40:13
Eccentricity: 0.0004538
inclination: 51.6463°
perigee height: 413 km
apogee height: 419 km
right ascension of ascending node: 136.1157°
argument of perigee: 45.9696°
revolutions per day: 15.50140870
mean anomaly at epoch: 295.6855°
orbit number at epoch: 90144

The dashed part of the orbit path shows where the satellite is in the earth's shadow,  

DLR